Location: Franzen
(48.6167°N, 15.3833°E)
Time: 12:36:14
(UTC+00:00)

Cosmos 389 Rocket - Pass Details

Date: 22 April 2021
Orbit: 441 x 472 km, 81.1° (Epoch: 16 May)

Event Time Altitude Azimuth Distance (km) Brightness Sun altitude
Rises 19:17:51 0° 195° (SSW) 2,477 6.0 -12.1°
Reaches altitude 10° 19:19:55 10° 198° (SSW) 1,612 5.0 -12.4°
Maximum altitude 19:23:26 70° 283° (WNW) 503 2.8 -12.9°
Drops below altitude 10° 19:27:01 10° 7° (N) 1,642 5.6 -13.4°
Sets 19:29:09 0° 10° (N) 2,528 6.6 -13.6°
